GLYRA EGPH-BIRK

Flight info

Callsign GLYRA
Flight time 1h 51m
Altitude 40000
Route GRICE DCT FOYLE N560 ERSON DCT BARKU DCT RATSU/M080F400 DCT PODAR DCT VM
Aircraft CL60/M-SBDE1E2E3FGHIJ1J4J5J7M3RWXYZ/LB1V1D1

Departure

Time 2026-04-23 09:50
Airport Edinburgh Airport (EGPH)

Arrival

Time 2026-04-23 11:42
Airport Reykjavík Domestic Airport (BIRK)
Time Latitude Longitude Altitude Speed Heading
2026-04-23 09:28 55.94766 -3.34557 113 ft 0 kts 149°
2026-04-23 09:42 55.94776 -3.34568 113 ft 2 kts 149°
2026-04-23 09:43 55.94789 -3.34582 113 ft 2 kts 149°
2026-04-23 09:43 55.94803 -3.34591 112 ft 2 kts 180°
2026-04-23 09:43 55.94817 -3.34584 113 ft 2 kts 213°
2026-04-23 09:43 55.94825 -3.34569 113 ft 0 kts 239°
2026-04-23 09:44 55.94826 -3.34566 113 ft 0 kts 239°
2026-04-23 09:45 55.94814 -3.34603 112 ft 6 kts 239°
2026-04-23 09:46 55.94779 -3.34707 111 ft 11 kts 239°
2026-04-23 09:46 55.94775 -3.34815 111 ft 11 kts 321°
2026-04-23 09:46 55.94827 -3.34951 108 ft 16 kts 299°
2026-04-23 09:46 55.94892 -3.35150 108 ft 20 kts 301°
2026-04-23 09:47 55.94962 -3.35386 106 ft 23 kts 298°
2026-04-23 09:47 55.95038 -3.35638 104 ft 22 kts 299°
2026-04-23 09:47 55.95119 -3.35856 102 ft 21 kts 303°
2026-04-23 09:47 55.95210 -3.36030 101 ft 13 kts 270°
2026-04-23 09:48 55.95161 -3.36198 101 ft 17 kts 239°
2026-04-23 09:48 55.95095 -3.36400 101 ft 20 kts 240°
2026-04-23 09:48 55.95016 -3.36634 101 ft 23 kts 239°
2026-04-23 09:48 55.94923 -3.36908 98 ft 27 kts 239°
2026-04-23 09:49 55.94821 -3.37207 100 ft 29 kts 238°
2026-04-23 09:49 55.94712 -3.37525 100 ft 31 kts 240°
2026-04-23 09:49 55.94600 -3.37863 103 ft 28 kts 242°
2026-04-23 09:49 55.94653 -3.38016 101 ft 16 kts 336°
2026-04-23 09:50 55.94730 -3.38027 101 ft 9 kts 48°
2026-04-23 09:50 55.94856 -3.37667 97 ft 79 kts 59°
2026-04-23 09:50 55.95279 -3.36395 273 ft 144 kts 58°
2026-04-23 09:50 55.95813 -3.34789 987 ft 160 kts 58°
2026-04-23 09:51 55.96563 -3.33228 1812 ft 176 kts 43°
2026-04-23 09:51 55.97498 -3.31860 2769 ft 181 kts 43°
2026-04-23 09:51 55.98513 -3.30248 3400 ft 218 kts 44°
2026-04-23 09:51 55.99729 -3.28316 4332 ft 253 kts 40°
2026-04-23 09:52 56.01323 -3.26967 5715 ft 270 kts 14°
2026-04-23 09:52 56.03204 -3.26804 7170 ft 281 kts 351°
2026-04-23 09:52 56.04991 -3.27973 8659 ft 285 kts 326°
2026-04-23 09:52 56.06354 -3.30456 10121 ft 286 kts 298°
2026-04-23 09:53 56.07018 -3.33729 11504 ft 291 kts 284°
2026-04-23 09:53 56.07529 -3.37206 12802 ft 298 kts 284°
2026-04-23 09:53 56.08056 -3.40752 14037 ft 304 kts 284°
2026-04-23 09:53 56.08601 -3.44409 15294 ft 308 kts 284°
2026-04-23 09:54 56.09149 -3.48095 16486 ft 312 kts 284°
2026-04-23 09:54 56.09712 -3.51821 17624 ft 316 kts 287°
2026-04-23 09:54 56.10635 -3.55330 18690 ft 320 kts 300°
2026-04-23 09:54 56.11818 -3.58769 19672 ft 326 kts 301°
2026-04-23 09:55 56.13027 -3.62187 20580 ft 333 kts 305°
2026-04-23 09:55 56.14646 -3.65192 21511 ft 340 kts 321°
2026-04-23 09:55 56.16724 -3.67134 22393 ft 347 kts 340°
2026-04-23 09:55 56.19032 -3.68526 23215 ft 352 kts 333°
2026-04-23 09:56 56.20953 -3.71201 24053 ft 352 kts 308°
2026-04-23 09:56 56.22443 -3.74645 24852 ft 358 kts 305°
2026-04-23 09:56 56.23975 -3.78239 25738 ft 361 kts 306°
2026-04-23 09:56 56.25492 -3.81784 26593 ft 364 kts 306°
2026-04-23 09:57 56.27055 -3.85437 27398 ft 368 kts 306°
2026-04-23 09:57 56.28674 -3.89219 28162 ft 372 kts 306°
2026-04-23 09:57 56.30289 -3.92997 28879 ft 376 kts 306°
2026-04-23 09:57 56.31892 -3.96745 29535 ft 380 kts 306°
2026-04-23 09:58 56.33525 -4.00567 30187 ft 384 kts 306°
2026-04-23 09:58 56.35170 -4.04422 30793 ft 388 kts 306°
2026-04-23 09:58 56.36817 -4.08284 31351 ft 391 kts 306°
2026-04-23 09:58 56.38489 -4.12209 31876 ft 395 kts 306°
2026-04-23 09:59 56.40151 -4.16113 32380 ft 397 kts 306°
2026-04-23 09:59 56.41850 -4.20113 32864 ft 400 kts 306°
2026-04-23 09:59 56.43538 -4.24090 33333 ft 402 kts 306°
2026-04-23 09:59 56.45329 -4.28018 33780 ft 405 kts 312°
2026-04-23 10:00 56.47432 -4.31515 34177 ft 410 kts 321°
2026-04-23 10:00 56.49777 -4.34372 34613 ft 412 kts 328°
2026-04-23 10:00 56.52252 -4.37025 35061 ft 412 kts 328°
2026-04-23 10:00 56.54683 -4.39640 35510 ft 410 kts 328°
2026-04-23 10:01 56.57139 -4.42285 35943 ft 409 kts 328°
2026-04-23 10:01 56.59553 -4.44890 36359 ft 408 kts 328°
2026-04-23 10:01 56.62003 -4.47536 36823 ft 407 kts 328°
2026-04-23 10:01 56.64409 -4.50140 37312 ft 406 kts 327°
2026-04-23 10:02 56.66846 -4.52780 37758 ft 406 kts 327°
2026-04-23 10:02 56.69250 -4.55389 38158 ft 407 kts 327°
2026-04-23 10:02 56.71696 -4.58047 38532 ft 407 kts 327°
2026-04-23 10:02 56.74100 -4.60664 38870 ft 407 kts 327°
2026-04-23 10:03 56.76521 -4.63302 39185 ft 407 kts 327°
2026-04-23 10:03 56.78941 -4.65944 39480 ft 407 kts 326°
2026-04-23 10:03 56.81387 -4.68618 39785 ft 407 kts 326°
2026-04-23 10:03 56.83792 -4.71251 40017 ft 407 kts 326°
2026-04-23 10:04 56.86245 -4.73940 40208 ft 408 kts 326°
2026-04-23 10:04 56.88656 -4.76587 40401 ft 409 kts 326°
2026-04-23 10:04 56.91126 -4.79306 40439 ft 415 kts 326°
2026-04-23 10:05 56.96118 -4.84812 40439 ft 426 kts 327°
2026-04-23 10:05 57.01240 -4.90478 40443 ft 436 kts 326°
2026-04-23 10:06 57.06484 -4.96298 40447 ft 446 kts 326°
2026-04-23 10:06 57.11828 -5.02249 40451 ft 454 kts 326°
2026-04-23 10:07 57.17246 -5.08301 40446 ft 458 kts 326°
2026-04-23 10:07 57.22690 -5.14403 40439 ft 460 kts 326°
2026-04-23 10:08 57.28141 -5.20533 40428 ft 460 kts 326°
2026-04-23 10:08 57.33593 -5.26687 40436 ft 459 kts 326°
2026-04-23 10:09 57.41715 -5.35895 40447 ft 460 kts 326°
2026-04-23 10:09 57.47142 -5.42075 40449 ft 461 kts 326°
2026-04-23 10:10 57.52605 -5.48318 40449 ft 461 kts 326°
2026-04-23 10:10 57.58057 -5.54571 40442 ft 462 kts 326°
2026-04-23 10:11 57.63522 -5.60861 40448 ft 462 kts 326°
2026-04-23 10:11 57.68976 -5.67162 40459 ft 463 kts 325°
2026-04-23 10:12 57.74441 -5.73497 40468 ft 463 kts 325°
2026-04-23 10:12 57.79904 -5.79853 40478 ft 464 kts 325°
2026-04-23 10:13 57.85351 -5.86213 40476 ft 465 kts 325°
2026-04-23 10:13 57.90829 -5.92633 40482 ft 466 kts 325°
2026-04-23 10:14 57.96332 -5.99107 40472 ft 467 kts 325°
2026-04-23 10:14 58.01824 -6.05590 40483 ft 467 kts 324°
2026-04-23 10:15 58.07327 -6.12112 40458 ft 467 kts 325°
2026-04-23 10:15 58.12811 -6.18633 40499 ft 466 kts 324°
2026-04-23 10:16 58.18292 -6.25176 40497 ft 467 kts 325°
2026-04-23 10:16 58.23769 -6.31739 40487 ft 468 kts 325°
2026-04-23 10:17 58.29272 -6.38356 40494 ft 469 kts 324°
2026-04-23 10:17 58.34758 -6.44977 40508 ft 469 kts 324°
2026-04-23 10:18 58.40229 -6.51605 40479 ft 469 kts 325°
2026-04-23 10:18 58.45730 -6.58269 40464 ft 470 kts 325°
2026-04-23 10:19 58.51221 -6.64963 40489 ft 470 kts 324°
2026-04-23 10:19 58.56734 -6.71711 40479 ft 470 kts 324°
2026-04-23 10:20 58.62226 -6.78453 40484 ft 470 kts 324°
2026-04-23 10:20 58.67707 -6.85209 40473 ft 470 kts 324°
2026-04-23 10:21 58.73179 -6.91975 40473 ft 469 kts 324°
2026-04-23 10:21 58.78656 -6.98775 40461 ft 470 kts 324°
2026-04-23 10:22 58.84118 -7.05586 40464 ft 469 kts 324°
2026-04-23 10:22 58.89568 -7.12419 40470 ft 470 kts 324°
2026-04-23 10:23 58.95033 -7.19286 40504 ft 468 kts 324°
2026-04-23 10:23 59.00486 -7.26167 40491 ft 468 kts 324°
2026-04-23 10:24 59.05906 -7.33035 40483 ft 467 kts 324°
2026-04-23 10:24 59.11341 -7.39950 40471 ft 467 kts 324°
2026-04-23 10:25 59.16756 -7.46867 40463 ft 468 kts 325°
2026-04-23 10:25 59.22208 -7.53855 40476 ft 468 kts 324°
2026-04-23 10:26 59.27649 -7.60857 40484 ft 469 kts 325°
2026-04-23 10:26 59.33093 -7.67892 40470 ft 470 kts 323°
2026-04-23 10:27 59.38504 -7.74948 40487 ft 470 kts 323°
2026-04-23 10:27 59.43908 -7.82014 40481 ft 469 kts 324°
2026-04-23 10:28 59.49349 -7.89149 40487 ft 469 kts 324°
2026-04-23 10:28 59.54748 -7.96253 40476 ft 469 kts 324°
2026-04-23 10:29 59.60154 -8.03390 40491 ft 470 kts 324°
2026-04-23 10:29 59.65599 -8.10605 40482 ft 470 kts 324°
2026-04-23 10:30 59.70995 -8.17781 40497 ft 471 kts 324°
2026-04-23 10:30 59.76414 -8.25015 40485 ft 471 kts 324°
2026-04-23 10:31 59.81837 -8.32282 40479 ft 471 kts 324°
2026-04-23 10:31 59.87221 -8.39525 40484 ft 470 kts 324°
2026-04-23 10:32 59.92641 -8.46844 40486 ft 471 kts 324°
2026-04-23 10:32 59.98051 -8.54179 40477 ft 471 kts 324°
2026-04-23 10:33 60.03423 -8.61492 40476 ft 471 kts 324°
2026-04-23 10:33 60.08811 -8.68855 40489 ft 471 kts 323°
2026-04-23 10:34 60.14210 -8.76262 40494 ft 471 kts 323°
2026-04-23 10:34 60.19596 -8.83682 40492 ft 472 kts 323°
2026-04-23 10:35 60.24991 -8.91146 40488 ft 472 kts 323°
2026-04-23 10:35 60.30365 -8.98594 40489 ft 463 kts 324°
2026-04-23 10:36 60.35677 -9.06007 40491 ft 468 kts 324°
2026-04-23 10:36 60.41019 -9.13490 40495 ft 475 kts 324°
2026-04-23 10:37 60.46478 -9.21167 40496 ft 483 kts 324°
2026-04-23 10:37 60.52020 -9.28994 40491 ft 487 kts 324°
2026-04-23 10:38 60.57501 -9.36765 40492 ft 478 kts 324°
2026-04-23 10:38 60.62887 -9.44519 40499 ft 471 kts 323°
2026-04-23 10:39 60.68157 -9.52304 40491 ft 470 kts 323°
2026-04-23 10:39 60.73413 -9.60096 40494 ft 471 kts 323°
2026-04-23 10:40 60.78731 -9.68014 40491 ft 472 kts 322°
2026-04-23 10:40 60.83995 -9.75881 40485 ft 472 kts 322°
2026-04-23 10:41 60.89274 -9.83805 40492 ft 473 kts 322°
2026-04-23 10:41 60.94418 -9.92073 40487 ft 472 kts 315°
2026-04-23 10:42 60.98637 -10.02348 40489 ft 469 kts 302°
2026-04-23 10:42 61.01542 -10.14247 40480 ft 466 kts 288°
2026-04-23 10:43 61.03241 -10.27014 40480 ft 465 kts 282°
2026-04-23 10:43 61.04773 -10.40000 40481 ft 465 kts 282°
2026-04-23 10:44 61.06287 -10.52947 40487 ft 466 kts 282°
2026-04-23 10:44 61.07794 -10.65953 40487 ft 466 kts 281°
2026-04-23 10:45 61.09281 -10.78910 40490 ft 466 kts 281°
2026-04-23 10:45 61.10758 -10.91899 40485 ft 467 kts 281°
2026-04-23 10:46 61.12235 -11.05007 40494 ft 467 kts 281°
2026-04-23 10:46 61.13688 -11.18032 40499 ft 468 kts 281°
2026-04-23 10:47 61.15134 -11.31116 40491 ft 468 kts 281°
2026-04-23 10:47 61.16564 -11.44182 40485 ft 467 kts 281°
2026-04-23 10:48 61.17989 -11.57326 40475 ft 467 kts 281°
2026-04-23 10:48 61.19395 -11.70438 40473 ft 467 kts 280°
2026-04-23 10:49 61.20790 -11.83568 40477 ft 468 kts 280°
2026-04-23 10:49 61.22173 -11.96716 40481 ft 468 kts 280°
2026-04-23 10:50 61.23542 -12.09858 40485 ft 468 kts 280°
2026-04-23 10:50 61.24897 -12.23015 40483 ft 468 kts 280°
2026-04-23 10:51 61.26243 -12.36208 40478 ft 468 kts 281°
2026-04-23 10:51 61.27575 -12.49407 40471 ft 468 kts 281°
2026-04-23 10:52 61.28893 -12.62599 40485 ft 468 kts 280°
2026-04-23 10:52 61.30197 -12.75796 40482 ft 468 kts 279°
2026-04-23 10:53 61.31486 -12.88979 40488 ft 468 kts 279°
2026-04-23 10:53 61.32771 -13.02264 40480 ft 467 kts 279°
2026-04-23 10:54 61.34031 -13.15439 40478 ft 468 kts 279°
2026-04-23 10:54 61.35289 -13.28729 40465 ft 468 kts 279°
2026-04-23 10:55 61.36528 -13.41975 40454 ft 468 kts 279°
2026-04-23 10:55 61.37756 -13.55246 40464 ft 468 kts 279°
2026-04-23 10:56 61.38977 -13.68600 40472 ft 468 kts 278°
2026-04-23 10:56 61.40175 -13.81854 40466 ft 468 kts 279°
2026-04-23 10:57 61.41367 -13.95192 40462 ft 469 kts 279°
2026-04-23 10:57 61.42550 -14.08583 40464 ft 469 kts 279°
2026-04-23 10:58 61.43702 -14.21869 40455 ft 469 kts 279°
2026-04-23 10:58 61.44854 -14.35206 40466 ft 469 kts 279°
2026-04-23 10:59 61.45998 -14.48622 40464 ft 470 kts 279°
2026-04-23 10:59 61.47127 -14.62018 40468 ft 470 kts 279°
2026-04-23 11:00 61.48247 -14.75485 40464 ft 469 kts 278°
2026-04-23 11:00 61.49605 -14.88780 40462 ft 471 kts 286°
2026-04-23 11:01 61.52261 -15.01197 40464 ft 473 kts 300°
2026-04-23 11:01 61.56199 -15.12225 40453 ft 474 kts 309°
2026-04-23 11:02 61.60397 -15.22814 40451 ft 475 kts 309°
2026-04-23 11:02 61.64604 -15.33480 40447 ft 475 kts 309°
2026-04-23 11:03 61.68789 -15.44139 40445 ft 474 kts 309°
2026-04-23 11:03 61.72989 -15.54880 40446 ft 475 kts 309°
2026-04-23 11:04 61.77169 -15.65622 40445 ft 475 kts 309°
2026-04-23 11:04 61.81333 -15.76373 40444 ft 476 kts 309°
2026-04-23 11:05 61.85507 -15.87200 40447 ft 475 kts 309°
2026-04-23 11:05 61.89653 -15.98009 40441 ft 475 kts 309°
2026-04-23 11:06 61.95896 -16.14373 40443 ft 477 kts 309°
2026-04-23 11:07 62.00057 -16.25347 40440 ft 475 kts 309°
2026-04-23 11:07 62.04157 -16.36212 40450 ft 474 kts 309°
2026-04-23 11:08 62.08268 -16.47158 40457 ft 474 kts 309°
2026-04-23 11:08 62.12396 -16.58203 40448 ft 475 kts 309°
2026-04-23 11:09 62.16495 -16.69222 40447 ft 475 kts 308°
2026-04-23 11:09 62.20576 -16.80248 40441 ft 475 kts 308°
2026-04-23 11:10 62.24643 -16.91289 40437 ft 474 kts 308°
2026-04-23 11:10 62.28700 -17.02355 40441 ft 474 kts 308°
2026-04-23 11:11 62.32751 -17.13459 40438 ft 474 kts 308°
2026-04-23 11:11 62.36805 -17.24625 40433 ft 474 kts 308°
2026-04-23 11:12 62.40836 -17.35783 40431 ft 474 kts 308°
2026-04-23 11:12 62.44846 -17.46938 40432 ft 475 kts 308°
2026-04-23 11:13 62.48871 -17.58188 40436 ft 475 kts 308°
2026-04-23 11:13 62.52889 -17.69473 40432 ft 475 kts 308°
2026-04-23 11:14 62.56908 -17.80822 40430 ft 475 kts 308°
2026-04-23 11:14 62.60887 -17.92109 40433 ft 474 kts 308°
2026-04-23 11:15 62.64879 -18.03492 40435 ft 474 kts 308°
2026-04-23 11:15 62.68842 -18.14848 40422 ft 474 kts 308°
2026-04-23 11:16 62.72808 -18.26270 40414 ft 475 kts 308°
2026-04-23 11:16 62.76751 -18.37685 40410 ft 475 kts 308°
2026-04-23 11:17 62.80716 -18.49219 40267 ft 474 kts 308°
2026-04-23 11:17 62.82681 -18.54956 39705 ft 470 kts 308°
2026-04-23 11:17 62.84597 -18.60565 39125 ft 466 kts 308°
2026-04-23 11:17 62.86549 -18.66291 38540 ft 462 kts 307°
2026-04-23 11:18 62.88444 -18.71864 37998 ft 459 kts 307°
2026-04-23 11:18 62.90334 -18.77438 37381 ft 460 kts 307°
2026-04-23 11:18 62.92234 -18.83053 36777 ft 459 kts 307°
2026-04-23 11:18 62.94123 -18.88651 36171 ft 458 kts 307°
2026-04-23 11:19 62.96003 -18.94237 35507 ft 453 kts 308°
2026-04-23 11:19 62.97823 -18.99659 34989 ft 443 kts 308°
2026-04-23 11:19 62.99626 -19.05044 34378 ft 436 kts 308°
2026-04-23 11:19 63.01400 -19.10356 33828 ft 431 kts 308°
2026-04-23 11:20 63.03170 -19.15664 33268 ft 430 kts 308°
2026-04-23 11:20 63.04922 -19.20930 32722 ft 429 kts 309°
2026-04-23 11:20 63.06671 -19.26197 32144 ft 430 kts 309°
2026-04-23 11:20 63.08448 -19.31560 31539 ft 431 kts 309°
2026-04-23 11:21 63.10203 -19.36872 30993 ft 431 kts 309°
2026-04-23 11:21 63.11951 -19.42178 30419 ft 431 kts 310°
2026-04-23 11:21 63.13703 -19.47504 29806 ft 430 kts 310°
2026-04-23 11:21 63.15451 -19.52834 29259 ft 426 kts 310°
2026-04-23 11:22 63.17162 -19.58064 28711 ft 423 kts 310°
2026-04-23 11:22 63.18892 -19.63364 28145 ft 419 kts 310°
2026-04-23 11:22 63.20565 -19.68502 27601 ft 415 kts 310°
2026-04-23 11:22 63.22256 -19.73708 27045 ft 411 kts 310°
2026-04-23 11:23 63.23901 -19.78785 26504 ft 406 kts 310°
2026-04-23 11:23 63.25531 -19.83823 25972 ft 402 kts 310°
2026-04-23 11:23 63.27135 -19.88794 25437 ft 397 kts 310°
2026-04-23 11:23 63.28736 -19.93765 24927 ft 393 kts 310°
2026-04-23 11:24 63.30311 -19.98667 24397 ft 389 kts 310°
2026-04-23 11:24 63.31862 -20.03503 23886 ft 384 kts 310°
2026-04-23 11:24 63.33398 -20.08304 23387 ft 378 kts 310°
2026-04-23 11:24 63.34895 -20.12992 22880 ft 372 kts 310°
2026-04-23 11:25 63.36367 -20.17613 22410 ft 366 kts 310°
2026-04-23 11:25 63.37828 -20.22209 21927 ft 360 kts 310°
2026-04-23 11:25 63.39254 -20.26699 21444 ft 354 kts 310°
2026-04-23 11:25 63.40635 -20.31222 20983 ft 350 kts 309°
2026-04-23 11:26 63.41961 -20.35706 20483 ft 346 kts 309°
2026-04-23 11:26 63.43279 -20.40168 20020 ft 341 kts 308°
2026-04-23 11:26 63.44554 -20.44493 19562 ft 336 kts 308°
2026-04-23 11:26 63.45828 -20.48821 19125 ft 331 kts 308°
2026-04-23 11:27 63.47073 -20.53063 18706 ft 327 kts 308°
2026-04-23 11:27 63.48306 -20.57269 18253 ft 324 kts 308°
2026-04-23 11:27 63.49544 -20.61494 17844 ft 324 kts 308°
2026-04-23 11:27 63.50772 -20.65697 17410 ft 323 kts 307°
2026-04-23 11:28 63.51981 -20.69841 16989 ft 322 kts 307°
2026-04-23 11:28 63.53194 -20.74010 16572 ft 320 kts 307°
2026-04-23 11:28 63.54408 -20.78191 16140 ft 318 kts 307°
2026-04-23 11:28 63.55608 -20.82330 15714 ft 315 kts 306°
2026-04-23 11:29 63.56782 -20.86388 15318 ft 314 kts 306°
2026-04-23 11:29 63.57964 -20.90478 14879 ft 311 kts 306°
2026-04-23 11:29 63.59130 -20.94523 14497 ft 310 kts 306°
2026-04-23 11:29 63.60295 -20.98568 14067 ft 308 kts 305°
2026-04-23 11:30 63.61445 -21.02570 13661 ft 306 kts 305°
2026-04-23 11:30 63.62590 -21.06565 13275 ft 304 kts 305°
2026-04-23 11:30 63.63730 -21.10544 12853 ft 302 kts 305°
2026-04-23 11:30 63.64856 -21.14488 12478 ft 299 kts 305°
2026-04-23 11:31 63.65973 -21.18399 12069 ft 298 kts 304°
2026-04-23 11:31 63.67081 -21.22294 11679 ft 296 kts 304°
2026-04-23 11:31 63.68178 -21.26152 11294 ft 292 kts 304°
2026-04-23 11:31 63.69265 -21.29981 10913 ft 290 kts 304°
2026-04-23 11:32 63.70345 -21.33792 10525 ft 289 kts 304°
2026-04-23 11:32 63.71415 -21.37576 10154 ft 287 kts 304°
2026-04-23 11:32 63.72488 -21.41376 9768 ft 285 kts 304°
2026-04-23 11:32 63.73539 -21.45105 9391 ft 283 kts 304°
2026-04-23 11:33 63.74589 -21.48837 9029 ft 282 kts 304°
2026-04-23 11:33 63.75639 -21.52572 8640 ft 281 kts 304°
2026-04-23 11:33 63.76687 -21.56309 8274 ft 286 kts 304°
2026-04-23 11:33 63.77740 -21.60071 7887 ft 280 kts 304°
2026-04-23 11:34 63.78770 -21.63755 7531 ft 275 kts 304°
2026-04-23 11:34 63.79779 -21.67371 7166 ft 272 kts 303°
2026-04-23 11:34 63.80746 -21.70840 6833 ft 271 kts 303°
2026-04-23 11:34 63.81756 -21.74469 6471 ft 271 kts 303°
2026-04-23 11:35 63.82745 -21.78030 6123 ft 267 kts 302°
2026-04-23 11:35 63.83714 -21.81525 5779 ft 262 kts 302°
2026-04-23 11:35 63.84689 -21.84997 5417 ft 256 kts 306°
2026-04-23 11:35 63.85947 -21.87729 4992 ft 250 kts 329°
2026-04-23 11:36 63.87546 -21.88995 4530 ft 246 kts 352°
2026-04-23 11:36 63.89258 -21.89337 4075 ft 246 kts 356°
2026-04-23 11:36 63.90953 -21.89646 3646 ft 245 kts 355°
2026-04-23 11:36 63.92642 -21.89961 3382 ft 246 kts 355°
2026-04-23 11:37 63.94331 -21.90276 3102 ft 241 kts 355°
2026-04-23 11:37 63.95950 -21.90571 3092 ft 222 kts 355°
2026-04-23 11:37 63.97396 -21.90836 3112 ft 196 kts 356°
2026-04-23 11:37 63.98699 -21.91078 3056 ft 186 kts 355°
2026-04-23 11:38 63.99968 -21.91315 2764 ft 177 kts 355°
2026-04-23 11:38 64.01148 -21.91535 2536 ft 165 kts 355°
2026-04-23 11:38 64.02264 -21.91744 2279 ft 152 kts 355°
2026-04-23 11:38 64.03232 -21.91925 2090 ft 130 kts 355°
2026-04-23 11:39 64.04081 -21.92084 1862 ft 117 kts 355°
2026-04-23 11:39 64.04860 -21.92231 1658 ft 112 kts 354°
2026-04-23 11:39 64.05638 -21.92378 1478 ft 112 kts 354°
2026-04-23 11:39 64.06408 -21.92525 1327 ft 113 kts 355°
2026-04-23 11:40 64.07194 -21.92673 1150 ft 112 kts 355°
2026-04-23 11:40 64.07973 -21.92820 972 ft 114 kts 355°
2026-04-23 11:40 64.08748 -21.92967 820 ft 113 kts 355°
2026-04-23 11:40 64.09544 -21.93117 615 ft 113 kts 354°
2026-04-23 11:41 64.10325 -21.93265 465 ft 114 kts 355°
2026-04-23 11:41 64.11101 -21.93409 282 ft 112 kts 355°
2026-04-23 11:41 64.11884 -21.93565 120 ft 112 kts 355°
2026-04-23 11:41 64.12642 -21.93704 12 ft 103 kts 352°
2026-04-23 11:42 64.13135 -21.93813 23 ft 38 kts 356°
2026-04-23 11:42 64.13388 -21.93844 32 ft 34 kts 356°
2026-04-23 11:42 64.13611 -21.93859 38 ft 24 kts 11°
2026-04-23 11:42 64.13634 -21.93817 40 ft 7 kts 98°
2026-04-23 11:43 64.13602 -21.93737 41 ft 7 kts 132°
2026-04-23 11:43 64.13549 -21.93641 42 ft 9 kts 176°
2026-04-23 11:43 64.13517 -21.93628 41 ft 6 kts 168°
2026-04-23 11:43 64.13463 -21.93614 41 ft 8 kts 175°
2026-04-23 11:44 64.13393 -21.93603 39 ft 11 kts 176°
2026-04-23 11:44 64.13327 -21.93590 36 ft 6 kts 175°
2026-04-23 11:44 64.13309 -21.93586 36 ft 0 kts 175°
2026-04-23 11:45 64.13277 -21.93579 35 ft 15 kts 175°
2026-04-23 11:45 64.13155 -21.93558 32 ft 18 kts 176°
2026-04-23 11:45 64.13054 -21.93503 29 ft 11 kts 121°
2026-04-23 11:46 64.13039 -21.93447 29 ft 3 kts 154°
2026-04-23 11:46 64.13026 -21.93441 29 ft 0 kts 174°